Notices

What's New in latest Release from April 7th, 2021:

- Updated Glossary, including Speed of Maximum Gust, and Total Hourly Precipitation

- Updated national and regional climate services offices contacts and prices information

- Addition of station inventory lists for 1981-2010, 1971-2000, and 1961-1990 Normals.

If you haven't already, please take our survey and provide feedback about our website: https://eccc.sondage-survey.ca/f/LanguageSelection.aspx?s=442ca660-fcf1-47c0-95a9-59707d6fd709

Hourly Data Report for January 09, 2005

SHERBROOKE A
QUEBEC

45°26'00.000" N
71°41'00.000" W
241.40 m
7028124
71610
YSC

Download Data

Hourly Data (January 2005)
Hourly Data Report for January 9, 2005
TIME
LST
Temp Definition
°C
Dew Point Definition
°C
Rel Hum Definition
%
Precip. Amount Definition
mm

Wind Dir Definition
10's deg

Wind Spd Definition
km/h
Visibility Definition
km
Stn Press Definition
kPa
Hmdx Definition


Wind Chill Definition


Weather Definition


00:00 -9.0 -10.7 87   27 6 8.0 99.75   -12  
01:00 -10.8 -12.6 87     0 4.8 99.78      
02:00 -12.3 -14.4 84   29 6 5.6 99.83   -16  
03:00 -14.5 -16.6 84     0 9.7 99.81      
04:00 -14.1 -15.9 86     0 9.7 99.83      
05:00 -12.1 -14.0 86     0 11.3 99.90      
06:00 -11.0 -12.7 87     0 9.7 99.97      
07:00 -10.8 -12.5 87     0 5.6 100.04      
08:00 -9.7 -11.2 89   31 4 1.2 100.13   -12 Fog
09:00 -9.0 -10.2 91     0 1.2 100.14     Fog
10:00 -8.5 -9.9 90     0 2.4 100.17     Fog
11:00 -7.8 -9.1 90   16 6 4.8 100.08   -11 Fog
12:00 -7.1 -8.2 92   7 4 4.8 99.91   -9 Fog
13:00 -6.1 -7.2 92     0 9.7 99.89     Fog
14:00 -6.1 -7.5 90     0 16.1 99.87     Mostly Cloudy
15:00 -5.5 -7.3 87   6 4 16.1 99.77   -7 Mostly Cloudy
16:00 -6.3 -8.7 83   4 4 16.1 99.74   -8 Mostly Cloudy
17:00 -6.3 -8.6 84   5 4 16.1 99.68   -8 Mostly Cloudy
18:00 -6.4 -8.6 84   7 6 8.0 99.66   -9  
19:00 -6.4 -8.7 84   8 7 8.0 99.63   -10  
20:00 -6.5 -8.7 84   6 6 9.7 99.56   -9  
21:00 -6.6 -8.7 85   9 4 9.7 99.44   -9  
22:00 -6.6 -8.5 86     0 9.7 99.37      
23:00 -5.7 -7.7 86   15 6 9.7 99.22   -9  

Notes on Data Quality.

Legend

  • E = Estimated
  • M = Missing
  • NA = Not Available*
  • [empty] = Indicates an unobserved value
Date modified: